Time,TemperatureF,DewpointF,PressureIn,WindDirection,WindDirectionDegrees,WindSpeedMPH,WindSpeedGustMPH,Humidity,HourlyPrecipIn,Conditions,Clouds,dailyrainin,SoftwareType,DateUTC
2013-05-29 08:00:00,49.0,-99.9,29.82,SSE,150,6.0,-999.0,-999,-99.99,,,-99.99,,2013-05-29 08:00:00,
2013-05-29 08:22:00,49.0,-99.9,29.82,SSE,150,6.0,-999.0,-999,-99.99,,,-99.99,,2013-05-29 08:22:00,
2013-05-29 08:32:00,49.0,-99.9,29.82,SSE,150,6.0,-999.0,-999,-99.99,,,-99.99,,2013-05-29 08:32:00,
2013-05-29 08:42:00,49.0,-99.9,29.82,SSE,150,6.0,-999.0,-999,-99.99,,,-99.99,,2013-05-29 08:42:00,
2013-05-29 08:52:00,49.0,-99.9,29.82,SSE,150,6.0,-999.0,-999,-99.99,,,-99.99,,2013-05-29 08:52:00,
2013-05-29 09:00:00,49.0,-99.9,29.85,SSW,210,8.0,-999.0,-999,-99.99,,,-99.99,,2013-05-29 09:00:00,
2013-05-29 09:22:00,49.0,-99.9,29.85,SSW,210,8.0,-999.0,-999,-99.99,,,-99.99,,2013-05-29 09:22:00,
2013-05-29 09:33:00,49.0,-99.9,29.85,SSW,210,8.0,-999.0,-999,-99.99,,,-99.99,,2013-05-29 09:33:00,
2013-05-29 09:42:00,49.0,-99.9,29.85,SSW,210,8.0,-999.0,-999,-99.99,,,-99.99,,2013-05-29 09:42:00,
2013-05-29 09:53:00,49.0,-99.9,29.85,SSW,210,8.0,-999.0,-999,-99.99,,,-99.99,,2013-05-29 09:53:00,
2013-05-29 10:00:00,49.0,-99.9,29.85,WSW,240,8.0,-999.0,-999,-99.99,,,-99.99,,2013-05-29 10:00:00,
2013-05-29 10:33:00,49.0,-99.9,29.85,WSW,240,8.0,-999.0,-999,-99.99,,,-99.99,,2013-05-29 10:33:00,
2013-05-29 10:42:00,49.0,-99.9,29.85,WSW,240,8.0,-999.0,-999,-99.99,,,-99.99,,2013-05-29 10:42:00,
2013-05-29 10:53:00,49.0,-99.9,29.85,WSW,240,8.0,-999.0,-999,-99.99,,,-99.99,,2013-05-29 10:53:00,
2013-05-29 11:00:00,51.0,-99.9,29.87,West,260,2.0,-999.0,-999,-99.99,,,-99.99,,2013-05-29 11:00:00,
2013-05-29 11:22:00,51.0,-99.9,29.87,West,260,2.0,-999.0,-999,-99.99,,,-99.99,,2013-05-29 11:22:00,
2013-05-29 11:32:00,51.0,-99.9,29.87,West,260,2.0,-999.0,-999,-99.99,,,-99.99,,2013-05-29 11:32:00,
2013-05-29 11:42:00,51.0,-99.9,29.87,West,260,2.0,-999.0,-999,-99.99,,,-99.99,,2013-05-29 11:42:00,
2013-05-29 11:52:00,51.0,-99.9,29.87,West,260,2.0,-999.0,-999,-99.99,,,-99.99,,2013-05-29 11:52:00,
2013-05-29 12:00:00,51.0,-99.9,29.88,South,190,3.0,-999.0,-999,-99.99,,,-99.99,,2013-05-29 12:00:00,
2013-05-29 12:22:00,51.0,-99.9,29.88,South,190,3.0,-999.0,-999,-99.99,,,-99.99,,2013-05-29 12:22:00,
2013-05-29 12:32:00,51.0,-99.9,29.88,South,190,3.0,-999.0,-999,-99.99,,,-99.99,,2013-05-29 12:32:00,
2013-05-29 12:42:00,51.0,-99.9,29.88,South,190,3.0,-999.0,-999,-99.99,,,-99.99,,2013-05-29 12:42:00,
2013-05-29 12:52:00,51.0,-99.9,29.88,South,190,3.0,-999.0,-999,-99.99,,,-99.99,,2013-05-29 12:52:00,
2013-05-29 13:00:00,51.0,-99.9,29.88,South,190,8.0,-999.0,-999,-99.99,,,-99.99,,2013-05-29 13:00:00,
2013-05-29 13:22:00,51.0,-99.9,29.88,South,190,8.0,-999.0,-999,-99.99,,,-99.99,,2013-05-29 13:22:00,
2013-05-29 13:32:00,51.0,-99.9,29.88,South,190,8.0,-999.0,-999,-99.99,,,-99.99,,2013-05-29 13:32:00,
2013-05-29 13:42:00,51.0,-99.9,29.88,South,190,8.0,-999.0,-999,-99.99,,,-99.99,,2013-05-29 13:42:00,
2013-05-29 13:53:00,51.0,-99.9,29.88,South,190,8.0,-999.0,-999,-99.99,,,-99.99,,2013-05-29 13:53:00,
2013-05-29 14:00:00,53.0,-99.9,29.90,WSW,240,10.0,-999.0,-999,-99.99,,,-99.99,,2013-05-29 14:00:00,
2013-05-29 14:22:00,53.0,-99.9,29.90,WSW,240,10.0,-999.0,-999,-99.99,,,-99.99,,2013-05-29 14:22:00,
2013-05-29 14:32:00,53.0,-99.9,29.90,WSW,240,10.0,-999.0,-999,-99.99,,,-99.99,,2013-05-29 14:32:00,
2013-05-29 14:42:00,53.0,-99.9,29.90,WSW,240,10.0,-999.0,-999,-99.99,,,-99.99,,2013-05-29 14:42:00,
2013-05-29 14:52:00,53.0,-99.9,29.90,WSW,240,10.0,-999.0,-999,-99.99,,,-99.99,,2013-05-29 14:52:00,
2013-05-29 15:00:00,56.0,-99.9,29.91,West,280,7.0,-999.0,-999,-99.99,,,-99.99,,2013-05-29 15:00:00,
2013-05-29 15:22:00,56.0,-99.9,29.91,West,280,7.0,-999.0,-999,-99.99,,,-99.99,,2013-05-29 15:22:00,
2013-05-29 15:33:00,56.0,-99.9,29.91,West,280,7.0,-999.0,-999,-99.99,,,-99.99,,2013-05-29 15:33:00,
2013-05-29 15:43:00,56.0,-99.9,29.91,West,280,7.0,-999.0,-999,-99.99,,,-99.99,,2013-05-29 15:43:00,
2013-05-29 15:53:00,56.0,-99.9,29.91,West,280,7.0,-999.0,-999,-99.99,,,-99.99,,2013-05-29 15:53:00,
2013-05-29 16:00:00,58.0,-99.9,29.92,WSW,240,8.0,-999.0,-999,-99.99,,,-99.99,,2013-05-29 16:00:00,
2013-05-29 16:22:00,58.0,-99.9,29.92,WSW,240,8.0,-999.0,-999,-99.99,,,-99.99,,2013-05-29 16:22:00,
2013-05-29 16:33:00,58.0,-99.9,29.92,WSW,240,8.0,-999.0,-999,-99.99,,,-99.99,,2013-05-29 16:33:00,
2013-05-29 16:42:00,58.0,-99.9,29.92,WSW,240,8.0,-999.0,-999,-99.99,,,-99.99,,2013-05-29 16:42:00,
2013-05-29 16:52:00,58.0,-99.9,29.92,WSW,240,8.0,-999.0,-999,-99.99,,,-99.99,,2013-05-29 16:52:00,
2013-05-29 17:00:00,60.0,-99.9,29.94,West,260,10.0,-999.0,-999,-99.99,,,-99.99,,2013-05-29 17:00:00,
2013-05-29 17:22:00,60.0,-99.9,29.94,West,260,10.0,-999.0,-999,-99.99,,,-99.99,,2013-05-29 17:22:00,
2013-05-29 17:33:00,60.0,-99.9,29.94,West,260,10.0,-999.0,-999,-99.99,,,-99.99,,2013-05-29 17:33:00,
2013-05-29 17:43:00,60.0,-99.9,29.94,West,260,10.0,-999.0,-999,-99.99,,,-99.99,,2013-05-29 17:43:00,
2013-05-29 17:52:00,60.0,-99.9,29.94,West,260,10.0,-999.0,-999,-99.99,,,-99.99,,2013-05-29 17:52:00,
2013-05-29 18:00:00,60.0,-99.9,29.94,WSW,250,14.0,-999.0,-999,-99.99,,,-99.99,,2013-05-29 18:00:00,
2013-05-29 18:22:00,60.0,-99.9,29.94,WSW,250,14.0,-999.0,-999,-99.99,,,-99.99,,2013-05-29 18:22:00,
2013-05-29 18:32:00,60.0,-99.9,29.94,WSW,250,14.0,-999.0,-999,-99.99,,,-99.99,,2013-05-29 18:32:00,
2013-05-29 18:42:00,60.0,-99.9,29.94,WSW,250,14.0,-999.0,-999,-99.99,,,-99.99,,2013-05-29 18:42:00,
2013-05-29 18:52:00,60.0,-99.9,29.94,WSW,250,14.0,-999.0,-999,-99.99,,,-99.99,,2013-05-29 18:52:00,
2013-05-29 19:00:00,60.0,-99.9,29.96,SSE,160,9.0,-999.0,-999,-99.99,,,-99.99,,2013-05-29 19:00:00,
2013-05-29 19:22:00,60.0,-99.9,29.96,SSE,160,9.0,-999.0,-999,-99.99,,,-99.99,,2013-05-29 19:22:00,
2013-05-29 19:32:00,60.0,-99.9,29.96,SSE,160,9.0,-999.0,-999,-99.99,,,-99.99,,2013-05-29 19:32:00,
2013-05-29 19:44:00,60.0,-99.9,29.96,SSE,160,9.0,-999.0,-999,-99.99,,,-99.99,,2013-05-29 19:44:00,
2013-05-29 19:53:00,60.0,-99.9,29.96,SSE,160,9.0,-999.0,-999,-99.99,,,-99.99,,2013-05-29 19:53:00,
2013-05-29 20:00:00,63.0,-99.9,29.97,WSW,240,14.0,-999.0,-999,-99.99,,,-99.99,,2013-05-29 20:00:00,
2013-05-29 20:23:00,63.0,-99.9,29.97,WSW,240,14.0,-999.0,-999,-99.99,,,-99.99,,2013-05-29 20:23:00,
2013-05-29 20:33:00,63.0,-99.9,29.97,WSW,240,14.0,-999.0,-999,-99.99,,,-99.99,,2013-05-29 20:33:00,
2013-05-29 20:42:00,63.0,-99.9,29.97,WSW,240,14.0,-999.0,-999,-99.99,,,-99.99,,2013-05-29 20:42:00,
2013-05-29 20:53:00,63.0,-99.9,29.97,WSW,240,14.0,-999.0,-999,-99.99,,,-99.99,,2013-05-29 20:53:00,
2013-05-29 21:00:00,61.0,-99.9,29.97,WSW,240,21.0,-999.0,-999,-99.99,,,-99.99,,2013-05-29 21:00:00,
2013-05-29 21:22:00,61.0,-99.9,29.97,WSW,240,21.0,-999.0,-999,-99.99,,,-99.99,,2013-05-29 21:22:00,
2013-05-29 21:34:00,61.0,-99.9,29.97,WSW,240,21.0,-999.0,-999,-99.99,,,-99.99,,2013-05-29 21:34:00,
2013-05-29 21:44:00,61.0,-99.9,29.97,WSW,240,21.0,-999.0,-999,-99.99,,,-99.99,,2013-05-29 21:44:00,
2013-05-29 21:53:00,61.0,-99.9,29.97,WSW,240,21.0,-999.0,-999,-99.99,,,-99.99,,2013-05-29 21:53:00,
2013-05-29 22:00:00,53.0,-99.9,29.97,West,270,14.0,-999.0,-999,-99.99,,,-99.99,,2013-05-29 22:00:00,
2013-05-29 22:23:00,53.0,-99.9,29.97,West,270,14.0,-999.0,-999,-99.99,,,-99.99,,2013-05-29 22:23:00,
2013-05-29 22:34:00,53.0,-99.9,29.97,West,270,14.0,-999.0,-999,-99.99,,,-99.99,,2013-05-29 22:34:00,
2013-05-29 22:43:00,53.0,-99.9,29.97,West,270,14.0,-999.0,-999,-99.99,,,-99.99,,2013-05-29 22:43:00,
2013-05-29 22:53:00,53.0,-99.9,29.97,West,270,14.0,-999.0,-999,-99.99,,,-99.99,,2013-05-29 22:53:00,
2013-05-29 23:00:00,52.0,-99.9,29.99,WNW,290,5.0,-999.0,-999,-99.99,,,-99.99,,2013-05-29 23:00:00,
2013-05-29 23:22:00,52.0,-99.9,29.99,WNW,290,5.0,-999.0,-999,-99.99,,,-99.99,,2013-05-29 23:22:00,
2013-05-29 23:33:00,52.0,-99.9,29.99,WNW,290,5.0,-999.0,-999,-99.99,,,-99.99,,2013-05-29 23:33:00,
2013-05-29 23:43:00,52.0,-99.9,29.99,WNW,290,5.0,-999.0,-999,-99.99,,,-99.99,,2013-05-29 23:43:00,
2013-05-29 23:53:00,52.0,-99.9,29.99,WNW,290,5.0,-999.0,-999,-99.99,,,-99.99,,2013-05-29 23:53:00,